Terminal Aerodrome Forecast
Issued by NWS

Home | Current Version | Previous Version | Text Only | Print | Product List | Glossary On
Versions: 1 2 3 4 5 6 7 8 9 10 11 12 13 14 15 16 17 18
000
FTUS44 KMAF 011700
TAFFST
TAF
KFST 011727Z 0118/0218 30006KT P6SM FEW100
     FM020100 16008KT P6SM FEW120=

USA.gov is the U.S. government's official web portal to all federal, state and local government web resources and services.